Location: Lane
(33.5226°N, 79.8788°W)
Time: 20:45:43
(UTC+00:00)

Explorer 11/Cluster Stage 4 - Pass Details

Date: 04 October 2022
Orbit: 466 x 1247 km, 28.8° (Epoch: 01 December)

Event Time Altitude Azimuth Distance (km) Brightness Sun altitude
Rises 17:03:34 0° 252° (WSW) 4,178 10.4 51.9°
Reaches altitude 10° 17:06:35 10° 249° (WSW) 3,200 10.0 51.9°
Maximum altitude 17:14:31 58° 173° (S) 1,343 10.5 51.9°
Drops below altitude 10° 17:21:32 10° 96° (E) 2,847 9.6 51.8°
Sets 17:24:05 0° 93° (E) 3,693 10.0 51.8°
